This is the latest recevied weather packets stored in our database for station/object AA9VI-10. If no packets are shown the sender has not sent any weather packets the latest 10 day(s).
| Time | Temp. | Humidity | Pressure | Rain* | Wind** | Luminosity | Snow |
|---|---|---|---|---|---|---|---|
| 1777657818 | 8.33° C | 49% | 1016.5 hPa | 0 mm | - | - | - |
| 1777657218 | 8.89° C | 48% | 1016.3 hPa | 0 mm | - | - | - |
| 1777656618 | 9.44° C | 48% | 1016.4 hPa | 0 mm | - | - | - |
| 1777656018 | 9.44° C | 48% | 1016.3 hPa | 0 mm | - | - | - |
| 1777655418 | 9.44° C | 52% | 1016.5 hPa | 0 mm | - | - | - |
| 1777654818 | 9.44° C | 50% | 1016.4 hPa | 0 mm | - | - | - |
| 1777654218 | 8.89° C | 54% | 1016.4 hPa | 0 mm | - | - | - |
| 1777653619 | 8.89° C | 53% | 1016.4 hPa | 0 mm | - | - | - |
| 1777653017 | 8.89° C | 51% | 1016.3 hPa | 0 mm | - | - | - |
| 1777652418 | 8.89° C | 53% | 1016.5 hPa | 0 mm | - | - | - |
| 1777651818 | 8.89° C | 57% | 1016.4 hPa | 0 mm | - | - | - |
| 1777651218 | 8.33° C | 60% | 1016.3 hPa | 0 mm | - | - | - |
| 1777650617 | 8.33° C | 56% | 1016.4 hPa | 0 mm | - | - | - |
| 1777650017 | 8.33° C | 58% | 1016.4 hPa | 0 mm | - | - | - |
| 1777649418 | 7.22° C | 56% | 1016.3 hPa | 0 mm | - | - | - |
| 1777648818 | 7.22° C | 57% | 1016.4 hPa | 0 mm | - | - | - |
| 1777648218 | 7.22° C | 58% | 1016.3 hPa | 0 mm | - | - | - |
| 1777647617 | 7.22° C | 63% | 1016.3 hPa | 0 mm | - | - | - |
| 1777647018 | 7.78° C | 69% | 1016.3 hPa | 0 mm | - | - | - |
| 1777646418 | 7.22° C | 74% | 1016.3 hPa | 0 mm | - | - | - |
| 1777645818 | 6.67° C | 76% | 1016.3 hPa | 0 mm | - | - | - |
| 1777645217 | 6.11° C | 81% | 1016.2 hPa | 0 mm | - | - | - |
| 1777644618 | 6.11° C | 85% | 1016.1 hPa | 0 mm | - | - | - |
| 1777644018 | 5.56° C | 87% | 1016 hPa | 0 mm | - | - | - |
| 1777643417 | 5.56° C | 88% | 1015.9 hPa | 0 mm | - | - | - |
* Rain latest hour (hover to see other rain measurements)
** Current wind speed in m/s (hover to see current wind gust speed)